TimeCDT,TemperatureF,Dew PointF,Humidity,Sea Level PressureIn,VisibilityMPH,Wind Direction,Wind SpeedMPH,Gust SpeedMPH,PrecipitationIn,Events,Conditions,WindDirDegrees,DateUTC
12:15 AM,35.6,33.8,93,29.55,4.0,NE,12.7,-,N/A,,Overcast,50,2013-04-12 05:15:00
12:35 AM,35.6,33.8,93,29.55,3.0,NE,10.4,-,N/A,,Overcast,50,2013-04-12 05:35:00
12:55 AM,35.6,33.8,93,29.55,4.0,NE,9.2,-,N/A,,Overcast,50,2013-04-12 05:55:00
1:15 AM,35.6,33.8,93,29.55,5.0,NE,8.1,-,N/A,,Overcast,50,2013-04-12 06:15:00
1:35 AM,35.6,33.8,93,29.55,2.5,NE,5.8,-,N/A,,Overcast,50,2013-04-12 06:35:00
1:55 AM,35.6,33.8,93,29.54,1.5,ENE,4.6,-,N/A,,Overcast,60,2013-04-12 06:55:00
2:15 AM,35.6,33.8,93,29.55,1.2,Calm,Calm,-,N/A,,Overcast,0,2013-04-12 07:15:00
2:35 AM,35.6,33.8,93,29.55,1.8,South,3.5,-,N/A,,Overcast,170,2013-04-12 07:35:00
2:55 AM,35.6,33.8,93,29.55,2.5,Calm,Calm,-,N/A,Rain,Light Rain,0,2013-04-12 07:55:00
3:15 AM,35.6,33.8,93,29.54,4.0,Calm,Calm,-,N/A,Rain,Light Rain,0,2013-04-12 08:15:00
3:35 AM,33.8,33.8,100,29.55,4.0,NNE,9.2,-,N/A,Rain,Light Rain,30,2013-04-12 08:35:00
3:55 AM,33.8,32.0,93,29.55,4.0,NE,10.4,-,N/A,Snow,Light Snow,40,2013-04-12 08:55:00
4:15 AM,33.8,32.0,93,29.56,6.0,North,9.2,-,N/A,Rain,Light Rain,10,2013-04-12 09:15:00
4:35 AM,33.8,32.0,93,29.57,7.0,North,11.5,-,N/A,,Overcast,350,2013-04-12 09:35:00
4:55 AM,32.0,32.0,100,29.58,9.0,NNW,12.7,-,N/A,,Overcast,340,2013-04-12 09:55:00
5:15 AM,32.0,30.2,93,29.58,10.0,NNW,12.7,-,N/A,,Overcast,340,2013-04-12 10:15:00
5:35 AM,32.0,30.2,93,29.58,10.0,NNW,13.8,-,N/A,,Overcast,340,2013-04-12 10:35:00
5:55 AM,32.0,30.2,93,29.58,10.0,NNW,13.8,-,N/A,,Overcast,340,2013-04-12 10:55:00
6:15 AM,32.0,30.2,93,29.59,10.0,NNW,13.8,-,N/A,,Overcast,340,2013-04-12 11:15:00
6:35 AM,32.0,30.2,93,29.60,10.0,NNW,16.1,-,N/A,,Overcast,340,2013-04-12 11:35:00
6:55 AM,32.0,30.2,93,29.61,9.0,NNW,13.8,-,N/A,,Overcast,330,2013-04-12 11:55:00
7:15 AM,32.0,28.4,87,29.62,2.0,NNW,13.8,19.6,N/A,,Overcast,330,2013-04-12 12:15:00
7:35 AM,30.2,28.4,93,29.63,1.5,NW,15.0,-,N/A,Snow,Light Snow,320,2013-04-12 12:35:00
7:55 AM,32.0,28.4,87,29.64,8.0,NW,13.8,-,N/A,Rain,Light Rain,320,2013-04-12 12:55:00
8:15 AM,30.2,28.4,93,29.64,10.0,NNW,16.1,-,N/A,,Overcast,340,2013-04-12 13:15:00
8:35 AM,32.0,28.4,87,29.65,10.0,NNW,17.3,-,N/A,,Overcast,330,2013-04-12 13:35:00
8:55 AM,32.0,28.4,87,29.65,10.0,NNW,16.1,21.9,N/A,,Overcast,330,2013-04-12 13:55:00
9:15 AM,32.0,28.4,87,29.65,10.0,NW,15.0,-,N/A,,Overcast,320,2013-04-12 14:15:00
9:35 AM,32.0,28.4,87,29.67,10.0,NNW,15.0,21.9,N/A,,Overcast,330,2013-04-12 14:35:00
9:55 AM,32.0,28.4,87,29.68,10.0,NW,13.8,19.6,N/A,,Overcast,320,2013-04-12 14:55:00
10:15 AM,32.0,28.4,87,29.68,10.0,NW,16.1,-,N/A,,Overcast,310,2013-04-12 15:15:00
10:35 AM,32.0,28.4,87,29.69,10.0,NW,18.4,-,N/A,,Overcast,310,2013-04-12 15:35:00
10:55 AM,33.8,28.4,81,29.69,10.0,NW,17.3,24.2,N/A,,Overcast,310,2013-04-12 15:55:00
11:15 AM,33.8,28.4,81,29.70,10.0,NW,16.1,23.0,N/A,,Overcast,320,2013-04-12 16:15:00
11:55 AM,33.8,28.4,81,29.72,10.0,WNW,18.4,-,N/A,,Overcast,300,2013-04-12 16:55:00
12:15 PM,33.8,26.6,75,29.72,10.0,WNW,17.3,24.2,N/A,,Overcast,300,2013-04-12 17:15:00
12:35 PM,33.8,28.4,81,29.73,10.0,WNW,19.6,25.3,N/A,,Overcast,290,2013-04-12 17:35:00
12:55 PM,33.8,28.4,81,29.73,10.0,NW,19.6,-,N/A,,Overcast,310,2013-04-12 17:55:00
1:15 PM,33.8,26.6,75,29.74,10.0,WNW,17.3,25.3,N/A,,Overcast,300,2013-04-12 18:15:00
1:35 PM,33.8,28.4,81,29.75,10.0,WNW,17.3,24.2,N/A,,Overcast,290,2013-04-12 18:35:00
1:55 PM,33.8,28.4,81,29.75,10.0,West,19.6,-,N/A,,Overcast,280,2013-04-12 18:55:00
2:15 PM,33.8,28.4,81,29.76,10.0,North,-9999.0,-,N/A,,Overcast,0,2013-04-12 19:15:00
2:35 PM,33.8,28.4,81,29.76,10.0,WNW,16.1,-,N/A,,Overcast,300,2013-04-12 19:35:00
2:55 PM,33.8,28.4,81,29.77,10.0,WNW,18.4,-,N/A,,Overcast,300,2013-04-12 19:55:00
3:15 PM,33.8,26.6,75,29.78,10.0,WNW,15.0,-,N/A,,Overcast,290,2013-04-12 20:15:00
3:35 PM,33.8,26.6,75,29.78,10.0,WNW,16.1,23.0,N/A,,Overcast,290,2013-04-12 20:35:00
3:55 PM,33.8,26.6,75,29.78,10.0,West,15.0,20.7,N/A,,Overcast,280,2013-04-12 20:55:00
4:15 PM,33.8,28.4,81,29.78,10.0,WNW,15.0,23.0,N/A,,Overcast,290,2013-04-12 21:15:00
4:35 PM,33.8,26.6,75,29.78,10.0,WNW,16.1,-,N/A,,Overcast,290,2013-04-12 21:35:00
5:15 PM,33.8,28.4,81,29.80,10.0,WNW,16.1,-,N/A,,Overcast,300,2013-04-12 22:15:00
5:35 PM,33.8,26.6,75,29.80,10.0,WNW,17.3,-,N/A,,Overcast,300,2013-04-12 22:35:00
5:55 PM,33.8,28.4,81,29.81,10.0,WNW,13.8,-,N/A,Rain,Light Rain,300,2013-04-12 22:55:00
6:15 PM,33.8,28.4,81,29.82,10.0,West,13.8,21.9,N/A,,Overcast,280,2013-04-12 23:15:00
6:35 PM,33.8,26.6,75,29.82,10.0,WNW,13.8,20.7,N/A,Rain,Light Rain,290,2013-04-12 23:35:00
6:55 PM,33.8,26.6,75,29.82,10.0,West,13.8,-,N/A,,Overcast,280,2013-04-12 23:55:00
7:15 PM,33.8,26.6,75,29.82,10.0,West,13.8,-,N/A,,Overcast,280,2013-04-13 00:15:00
7:35 PM,33.8,26.6,75,29.82,10.0,WNW,9.2,17.3,N/A,,Overcast,290,2013-04-13 00:35:00
7:55 PM,33.8,26.6,75,29.82,10.0,West,12.7,-,N/A,,Overcast,280,2013-04-13 00:55:00
8:15 PM,33.8,26.6,75,29.83,10.0,West,15.0,20.7,N/A,,Overcast,280,2013-04-13 01:15:00
8:35 PM,32.0,26.6,80,29.83,10.0,WNW,13.8,-,N/A,,Overcast,290,2013-04-13 01:35:00
9:15 PM,32.0,24.8,75,29.84,10.0,WNW,11.5,17.3,N/A,,Scattered Clouds,290,2013-04-13 02:15:00
9:35 PM,32.0,24.8,75,29.85,10.0,West,11.5,-,N/A,,Scattered Clouds,280,2013-04-13 02:35:00
9:55 PM,32.0,24.8,75,29.85,10.0,West,12.7,-,N/A,,Overcast,280,2013-04-13 02:55:00
10:15 PM,32.0,26.6,80,29.86,10.0,WNW,11.5,18.4,N/A,,Overcast,290,2013-04-13 03:15:00
10:35 PM,32.0,26.6,80,29.86,10.0,WNW,11.5,-,N/A,,Overcast,290,2013-04-13 03:35:00
10:55 PM,32.0,26.6,80,29.86,10.0,West,13.8,-,N/A,,Overcast,280,2013-04-13 03:55:00
11:15 PM,32.0,26.6,80,29.86,10.0,West,13.8,-,N/A,,Overcast,280,2013-04-13 04:15:00
11:35 PM,32.0,26.6,80,29.86,10.0,WNW,13.8,21.9,N/A,,Overcast,290,2013-04-13 04:35:00
11:55 PM,32.0,26.6,80,29.86,10.0,WNW,11.5,20.7,N/A,,Overcast,300,2013-04-13 04:55:00